DW2819 Weather Reports


Display with metric or nautical units.
time (UTC)temp
F
wind
direction
speed
MPH
gust
MPH
rain 1hr
in
rain 24hr
in
rain mn
in
humidity
%
barometer
mb
20260906120500 58 257 2.0 3.0 0.00 0.00 0.00 58 1008.9
20260906120004 58 179 1.0 3.0 0.00 0.00 0.00 56 1008.8
20260906115502 58 0 1.0 4.0 0.00 0.00 0.00 56 1008.8
20260906115002 58 265 1.0 4.0 0.00 0.00 0.00 56 1008.8
20260906114501 58 348 2.0 9.0 0.00 0.00 0.00 55 1008.8
20260906114006 58 306 1.0 9.0 0.00 0.00 0.00 55 1008.6
20260906113502 58 347 2.0 5.0 0.00 0.00 0.00 57 1008.6
20260906113005 58 329 2.0 4.0 0.00 0.00 0.00 55 1008.7
20260906112505 58 162 2.0 6.0 0.00 0.00 0.00 57 1008.4
20260906112003 58 252 2.0 6.0 0.00 0.00 0.00 55 1008.3
20260906111501 58 0 2.0 3.0 0.00 0.00 0.00 54 1008.3
20260906111003 58 348 1.0 5.0 0.00 0.00 0.00 54 1008.3
20260906110502 58 262 2.0 5.0 0.00 0.00 0.00 57 1008.3
20260906110001 58 200 1.0 5.0 0.00 0.00 0.00 55 1008.2
20260906105500 58 298 2.0 5.0 0.00 0.00 0.00 57 1008.2
20260906105004 58 288 1.0 4.0 0.00 0.00 0.00 55 1008.1
20260906104502 58 298 1.0 7.0 0.00 0.00 0.00 56 1008.0
20260906104002 58 268 1.0 7.0 0.00 0.00 0.00 56 1007.9
20260906103500 58 299 1.0 3.0 0.00 0.00 0.00 56 1007.9
20260906103003 58 0 2.0 3.0 0.00 0.00 0.00 55 1007.8
20260906102521 58 269 1.0 5.0 0.00 0.00 0.00 56 1007.8
20260906101003 58 271 2.0 9.0 0.00 0.00 0.00 54 1007.6
20260906100505 59 0 1.0 9.0 0.00 0.00 0.00 53 1007.5
20260906100000 60 0 1.0 4.0 0.00 0.00 0.00 53 1007.5
20260906095501 59 0 1.0 3.0 0.00 0.00 0.00 53 1007.4
20260906094959 59 25 1.0 3.0 0.00 0.00 0.00 53 1007.3
20260906094459 59 300 0.0 3.0 0.00 0.00 0.00 53 1007.2
20260906094001 59 348 1.0 3.0 0.00 0.00 0.00 54 1007.1
20260906093459 59 309 1.0 4.0 0.00 0.00 0.00 53 1007.1
20260906093000 58 348 1.0 6.0 0.00 0.00 0.00 54 1007.1
20260906092459 59 257 2.0 6.0 0.00 0.00 0.00 55 1007.2
20260906092003 58 323 1.0 5.0 0.00 0.00 0.00 56 1007.1
20260906091449 58 324 3.0 9.0 0.00 0.00 0.00 56 1007.2
20260906090935 58 237 2.0 9.0 0.00 0.00 0.00 55 1007.1
20260906090434 58 298 2.0 3.0 0.00 0.00 0.00 57 1007.0
20260906085433 57 283 2.0 6.0 0.00 0.00 0.00 60 1006.8
20260906084928 57 292 2.0 3.0 0.00 0.00 0.00 58 1006.8
20260906084427 58 255 1.0 3.0 0.00 0.00 0.00 60 1006.8
20260906083928 58 290 1.0 3.0 0.00 0.00 0.00 62 1006.7
20260906083427 57 341 1.0 4.0 0.00 0.00 0.00 61 1006.7
20260906082923 57 265 1.0 4.0 0.00 0.00 0.00 64 1006.6
20260906082427 57 248 1.0 7.0 0.00 0.00 0.00 64 1006.6
20260906081930 57 314 2.0 7.0 0.00 0.00 0.00 66 1006.7
20260906081409 56 290 2.0 4.0 0.00 0.00 0.00 66 1006.6
20260906080903 56 327 1.0 4.0 0.00 0.00 0.00 67 1006.6
20260906080407 56 295 1.0 4.0 0.00 0.00 0.00 69 1006.5
20260906075909 56 261 2.0 5.0 0.00 0.00 0.00 68 1006.5
20260906074903 55 313 2.0 3.0 0.00 0.00 0.00 70 1006.5
20260906074409 55 0 1.0 2.0 0.00 0.00 0.00 70 1006.4
20260906073907 54 345 1.0 3.0 0.00 0.00 0.00 71 1006.3
20260906073406 54 283 1.0 3.0 0.00 0.00 0.00 70 1006.3
20260906072904 55 345 1.0 3.0 0.00 0.00 0.00 70 1006.3
20260906072406 55 312 1.0 3.0 0.00 0.00 0.00 71 1006.3
20260906071905 54 245 1.0 4.0 0.00 0.00 0.00 72 1006.3
20260906071405 54 276 2.0 4.0 0.00 0.00 0.00 71 1006.1
20260906070904 55 306 1.0 5.0 0.00 0.00 0.00 71 1006.1
20260906070359 55 272 2.0 5.0 0.00 0.00 0.00 72 1006.2
20260906065912 54 340 2.0 7.0 0.00 0.00 0.00 71 1006.1
20260906064900 55 271 1.0 5.0 0.00 0.00 0.00 70 1006.0
20260906064400 55 309 0.0 4.0 0.00 0.00 0.00 71 1005.9
20260906063402 54 334 1.0 3.0 0.00 0.00 0.00 72 1005.8
20260906062902 54 299 1.0 3.0 0.00 0.00 0.00 72 1005.8
20260906062400 54 321 1.0 3.0 0.00 0.00 0.00 72 1005.7
20260906061401 54 299 0.0 2.0 0.00 0.00 0.00 75 1005.6
20260906060401 53 320 2.0 4.0 0.00 0.00 0.00 75 1005.6
20260906055401 53 266 0.0 4.0 0.00 0.00 0.00 77 1005.5
20260906054859 53 0 1.0 2.0 0.00 0.00 0.00 76 1005.5
20260906053902 53 279 1.0 2.0 0.00 0.00 0.00 77 1005.3
20260906053400 52 344 0.0 1.0 0.00 0.00 0.00 79 1005.2
20260906052903 51 337 0.0 1.0 0.00 0.00 0.00 79 1005.2
20260906051859 50 314 0.0 2.0 0.00 0.00 0.00 81 1005.0
20260906051402 50 334 1.0 4.0 0.00 0.00 0.00 82 1005.1
20260906050902 50 276 0.0 4.0 0.00 0.00 0.00 82 1004.9
20260906050400 50 279 0.0 2.0 0.00 0.00 0.00 83 1004.9
20260906045903 50 303 0.0 3.0 0.00 0.00 0.00 83 1005.1
20260906045402 50 344 1.0 3.0 0.00 0.00 0.00 84 1005.0
20260906044859 50 295 1.0 4.0 0.00 0.00 0.00 85 1004.9
20260906043902 49 333 1.0 3.0 0.00 0.00 0.00 86 1005.0
20260906042903 49 334 1.0 2.0 0.00 0.00 0.00 87 1004.8
20260906041901 49 306 0.0 3.0 0.00 0.00 0.00 88 1004.6
20260906041359 49 272 0.0 3.0 0.00 0.00 0.00 88 1004.5
20260906040859 49 293 0.0 2.0 0.00 0.00 0.00 88 1004.5
20260906040401 49 330 0.0 3.0 0.00 0.00 0.00 88 1004.4
20260906035859 49 305 0.0 3.0 0.00 0.00 0.00 88 1004.3
20260906034859 49 329 0.0 2.0 0.00 0.00 0.00 89 1004.2
20260906034359 49 299 0.0 2.0 0.00 0.00 0.00 89 1004.1
20260906033900 49 354 0.0 3.0 0.00 0.00 0.00 89 1004.1
20260906033401 49 286 1.0 3.0 0.00 0.00 0.00 89 1004.0
20260906032859 49 326 0.0 3.0 0.00 0.00 0.00 89 1004.0
20260906032401 49 348 0.0 2.0 0.00 0.00 0.00 89 1003.9
20260906031902 49 317 1.0 2.0 0.00 0.00 0.00 89 1003.8
20260906031359 49 289 0.0 2.0 0.00 0.00 0.00 89 1003.8
20260906030856 49 0 0.0 2.0 0.00 0.00 0.00 89 1003.7
20260906030359 49 350 0.0 3.0 0.00 0.00 0.00 90 1003.7
20260906025359 49 343 0.0 1.0 0.00 0.00 0.00 90 1003.5
20260906024856 49 344 0.0 2.0 0.00 0.00 0.00 90 1003.5
20260906024403 49 0 0.0 2.0 0.00 0.00 0.00 90 1003.4
20260906023902 49 341 0.0 1.0 0.00 0.00 0.00 90 1003.3
20260906023402 49 341 0.0 1.0 0.00 0.00 0.00 90 1003.3
20260906022901 48 302 0.0 1.0 0.00 0.00 0.00 89 1003.2
20260906022359 48 0 0.0 1.0 0.00 0.00 0.00 89 1003.1
20260906021901 48 0 0.0 1.0 0.00 0.00 0.00 89 1003.2
20260906021402 48 330 0.0 0.0 0.00 0.00 0.00 89 1003.2
20260906020903 48 330 0.0 0.0 0.00 0.00 0.00 89 1003.1
20260906020359 48 331 0.0 1.0 0.00 0.00 0.00 89 1003.0
20260906015900 48 317 0.0 2.0 0.00 0.00 0.00 89 1003.0
20260906015400 48 303 0.0 2.0 0.00 0.00 0.00 89 1002.9
20260906013900 48 296 0.0 1.0 0.00 0.00 0.00 89 1002.6
20260906013359 48 298 0.0 2.0 0.00 0.00 0.00 89 1002.5
20260906012902 48 299 1.0 2.0 0.00 0.00 0.00 89 1002.5
20260906011859 48 336 0.0 1.0 0.00 0.00 0.00 89 1002.4
20260906011401 48 296 0.0 1.0 0.00 0.00 0.00 89 1002.5
20260906010901 48 303 0.0 4.0 0.00 0.00 0.00 89 1002.4
20260906005859 49 351 0.0 1.0 0.00 0.00 0.00 89 1002.2
20260906005340 49 317 0.0 0.0 0.00 0.00 0.00 89 1002.3
20260906004838 49 317 0.0 1.0 0.00 0.00 0.00 89 1002.1
20260906004338 49 317 0.0 1.0 0.00 0.00 0.00 89 1002.2
20260906003834 49 303 0.0 1.0 0.00 0.00 0.00 89 1002.1
20260906003337 49 331 0.0 1.0 0.00 0.00 0.00 89 1002.0
20260906002831 49 309 0.0 3.0 0.00 0.00 0.00 89 1001.9
20260906002332 49 340 0.0 3.0 0.00 0.00 0.00 89 1002.0
20260906001834 49 307 0.0 3.0 0.00 0.00 0.00 89 1001.9
20260906001330 49 296 0.0 1.0 0.00 0.00 0.00 89 1001.8
20260906000821 49 307 0.0 1.0 0.00 0.00 0.00 89 1001.9
20260906000314 49 317 0.0 0.0 0.00 0.00 0.00 89 1001.7
20260905235307 50 327 0.0 1.0 0.00 0.00 0.00 89 1001.6
20260905234259 50 302 0.0 2.0 0.00 0.00 0.00 89 1001.4
20260905233802 50 289 0.0 1.0 0.00 0.00 0.00 88 1001.5
20260905233300 50 292 0.0 1.0 0.00 0.00 0.00 88 1001.4
20260905232800 50 319 0.0 2.0 0.00 0.00 0.00 88 1001.3
20260905232257 50 321 0.0 3.0 0.00 0.00 0.00 88 1001.3
20260905231757 50 0 0.0 3.0 0.00 0.00 0.00 88 1001.3
20260905231259 50 0 0.0 4.0 0.00 0.00 0.00 88 1001.2
20260905230307 50 0 0.0 0.0 0.00 0.00 0.00 88 1001.1
20260905225259 51 0 0.0 1.0 0.00 0.00 0.00 88 1001.0
20260905224757 51 0 0.0 1.0 0.00 0.00 0.00 88 1001.0
20260905223759 51 299 0.0 2.0 0.00 0.00 0.00 88 1000.9
20260905223259 51 334 0.0 1.0 0.00 0.00 0.00 88 1000.8
20260905222758 51 333 0.0 1.0 0.00 0.00 0.00 88 1000.8
20260905222301 51 293 0.0 1.0 0.00 0.00 0.00 88 1000.8
20260905221758 51 314 0.0 1.0 0.00 0.00 0.00 88 1000.7
20260905221258 51 314 0.0 1.0 0.00 0.00 0.00 88 1000.7
20260905220802 51 298 0.0 1.0 0.00 0.00 0.00 88 1000.7
20260905220259 51 266 0.0 0.0 0.00 0.00 0.00 88 1000.7
20260905215800 51 266 0.0 0.0 0.00 0.00 0.00 88 1000.6
20260905215259 52 266 0.0 1.0 0.00 0.00 0.00 88 1000.7
20260905214755 52 266 0.0 1.0 0.00 0.00 0.00 88 1000.5
20260905214255 52 336 0.0 0.0 0.00 0.00 0.00 88 1000.5
20260905213756 52 334 0.0 0.0 0.00 0.00 0.00 88 1000.4
20260905213255 52 334 0.0 0.0 0.00 0.00 0.00 88 1000.4
20260905212758 52 333 0.0 1.0 0.00 0.00 0.00 88 1000.4
20260905212259 52 333 0.0 1.0 0.00 0.00 0.00 88 1000.3
20260905211803 52 319 0.0 1.0 0.00 0.00 0.00 88 1000.4
20260905210758 52 347 0.0 0.0 0.00 0.00 0.00 88 1000.2
20260905210259 52 347 0.0 0.0 0.00 0.00 0.00 88 1000.2
20260905205759 52 347 0.0 0.0 0.00 0.00 0.00 88 1000.1
20260905205259 52 347 0.0 0.0 0.00 0.00 0.00 88 1000.2
20260905204759 52 347 0.0 0.0 0.00 0.00 0.00 88 1000.1
20260905204259 52 261 0.0 0.0 0.00 0.00 0.00 88 1000.0
20260905203759 52 261 0.0 0.0 0.00 0.00 0.00 88 999.9
20260905203301 53 0 0.0 0.0 0.00 0.00 0.00 87 999.9
20260905202759 53 1 0.0 0.0 0.00 0.00 0.00 87 999.8
20260905202259 53 1 0.0 1.0 0.00 0.00 0.00 87 999.7
20260905201758 53 1 0.0 1.0 0.00 0.00 0.00 86 999.7
20260905201259 53 358 0.0 0.0 0.00 0.00 0.00 86 999.6
20260905200758 53 358 0.0 0.0 0.00 0.00 0.00 86 999.6
20260905200259 54 358 0.0 0.0 0.00 0.00 0.00 85 999.7
20260905194802 55 334 0.0 0.0 0.00 0.00 0.00 84 999.4
20260905194301 55 334 0.0 0.0 0.00 0.00 0.00 84 999.4
20260905193800 55 334 0.0 0.0 0.00 0.00 0.00 83 999.3
20260905192801 55 334 0.0 0.0 0.00 0.00 0.00 83 999.3
20260905192259 55 334 0.0 0.0 0.00 0.00 0.00 83 999.2
20260905191759 55 0 0.0 2.0 0.00 0.00 0.00 83 999.2
20260905190803 55 344 0.0 1.0 0.00 0.00 0.00 84 999.1
20260905190301 55 0 0.0 1.0 0.00 0.00 0.00 84 999.1
20260905185800 55 269 0.0 1.0 0.00 0.00 0.00 85 999.1
20260905185259 55 4 0.0 0.0 0.00 0.00 0.00 84 999.0
20260905184800 55 4 0.0 0.0 0.00 0.00 0.00 84 999.1
20260905184303 55 4 0.0 3.0 0.00 0.00 0.00 83 998.9
20260905183808 55 4 1.0 3.0 0.00 0.00 0.00 83 998.9
20260905182759 56 289 0.0 1.0 0.00 0.00 0.00 84 998.8
20260905182259 56 289 0.0 1.0 0.00 0.00 0.00 83 998.8
20260905181800 56 11 0.0 0.0 0.00 0.00 0.00 83 998.7
20260905180758 56 13 0.0 0.0 0.00 0.00 0.00 84 998.7
20260905180301 56 354 0.0 0.0 0.00 0.00 0.00 84 998.6
20260905175758 56 354 0.0 0.0 0.00 0.00 0.00 84 998.6
20260905173758 56 354 0.0 0.0 0.00 0.00 0.00 82 998.5
20260905173258 56 354 0.0 0.0 0.00 0.00 0.00 82 998.5
20260905172758 56 354 0.0 0.0 0.00 0.00 0.00 82 998.5
20260905172305 56 354 0.0 0.0 0.00 0.00 0.00 82 998.4
20260905171758 56 354 0.0 0.0 0.00 0.00 0.00 82 998.3
20260905170759 56 354 0.0 0.0 0.00 0.00 0.00 82 998.1
20260905170305 56 354 0.0 0.0 0.00 0.00 0.00 81 998.1
20260905165759 56 354 0.0 0.0 0.00 0.00 0.00 81 998.0
20260905165258 56 354 0.0 0.0 0.00 0.00 0.00 81 998.0
20260905164759 56 354 0.0 0.0 0.00 0.00 0.00 81 997.8
20260905164258 57 354 0.0 0.0 0.00 0.00 0.00 80 997.9
20260905163758 57 354 0.0 0.0 0.00 0.00 0.00 80 997.8
20260905163300 57 354 0.0 0.0 0.00 0.00 0.00 80 997.8
20260905162759 57 354 0.0 0.0 0.00 0.00 0.00 80 997.8
20260905162259 58 354 0.0 0.0 0.00 0.00 0.00 79 997.7
20260905161809 58 354 0.0 0.0 0.00 0.00 0.00 78 997.6
20260905161307 58 354 0.0 0.0 0.00 0.00 0.00 77 997.6
20260905160802 58 354 0.0 0.0 0.00 0.00 0.00 77 997.6
20260905160306 58 354 0.0 0.0 0.00 0.00 0.00 77 997.5
20260905155803 58 354 0.0 0.0 0.00 0.00 0.00 76 997.4
20260905155305 59 354 0.0 0.0 0.00 0.00 0.00 75 997.3
20260905154801 59 354 0.0 0.0 0.00 0.00 0.00 74 997.3
20260905154300 59 354 0.0 0.0 0.00 0.00 0.00 72 997.3
20260905153802 60 354 0.0 0.0 0.00 0.00 0.00 71 997.3
20260905153300 60 354 0.0 0.0 0.00 0.00 0.00 70 997.1
20260905152800 61 354 0.0 0.0 0.00 0.00 0.00 68 997.1
20260905152258 62 354 0.0 1.0 0.00 0.00 0.00 66 997.2
20260905151758 62 354 0.0 1.0 0.00 0.00 0.00 65 997.2
20260905151300 62 0 0.0 1.0 0.00 0.00 0.00 64 997.2
20260905150800 62 3 0.0 2.0 0.00 0.00 0.00 63 997.1
20260905150302 63 265 0.0 2.0 0.00 0.00 0.00 62 997.1
20260905145800 63 279 0.0 2.0 0.00 0.00 0.00 62 997.0
20260905144300 63 341 0.0 2.0 0.00 0.00 0.00 65 996.8
20260905143800 63 334 0.0 3.0 0.00 0.00 0.00 64 996.7
20260905143258 63 275 1.0 3.0 0.00 0.00 0.00 61 996.7
20260905142801 63 254 0.0 3.0 0.00 0.00 0.00 60 996.7
20260905141756 63 355 0.0 2.0 0.00 0.00 0.00 60 996.6
20260905140756 63 7 0.0 2.0 0.00 0.00 0.00 57 996.5
20260905140254 63 261 0.0 2.0 0.00 0.00 0.00 58 996.5
20260905135755 63 285 1.0 3.0 0.00 0.00 0.00 54 996.5
20260905135254 64 269 1.0 3.0 0.00 0.00 0.00 58 996.4
20260905134258 64 0 0.0 3.0 0.00 0.00 0.00 59 996.3
20260905133755 63 298 2.0 4.0 0.00 0.00 0.00 60 996.3
20260905132756 63 1 0.0 3.0 0.00 0.00 0.00 60 996.2
20260905132254 63 0 0.0 3.0 0.00 0.00 0.00 55 996.2
20260905131756 63 350 1.0 3.0 0.00 0.00 0.00 55 996.2
20260905131256 62 0 0.0 3.0 0.00 0.00 0.00 59 996.3
20260905130755 62 313 0.0 2.0 0.00 0.00 0.00 59 996.2
20260905130257 63 272 1.0 3.0 0.00 0.00 0.00 60 996.2
20260905125757 63 350 1.0 3.0 0.00 0.00 0.00 59 996.1
20260905125256 63 336 1.0 2.0 0.00 0.00 0.00 59 996.1
20260905124758 63 0 0.0 3.0 0.00 0.00 0.00 61 996.1
20260905124256 63 303 0.0 5.0 0.00 0.00 0.00 60 996.0
20260905123758 62 292 1.0 5.0 0.00 0.00 0.00 61 995.9
20260905123300 62 200 0.0 3.0 0.00 0.00 0.00 59 995.9
20260905121758 62 251 0.0 3.0 0.00 0.00 0.00 66 995.8
20260905121258 61 278 0.0 3.0 0.00 0.00 0.00 65 995.9
20260905120800 61 316 0.0 4.0 0.00 0.00 0.00 69 995.9